Regional Weather Roundup
Issued by NWS

Home | Current Version | Previous Version | Graphics & Text | Print | Product List | Glossary On
Versions: 1 2 3 4 5 6 7 8 9 10 11 12 13 14 15 16 17 18 19 20 21 22 23 24 25 26 27 28 29 30 31 32 33 34 35 36 37 38 39 40 41 42 43 44 45 46 47 48 49 50
000
ASUS45 KBOU 131307
RWRCO

WEATHER ROUNDUP FOR COLORADO
NATIONAL WEATHER SERVICE DENVER/BOULDER CO
600 AM MST SAT FEB 13 2016

NOTE: "FAIR" INDICATES FEW OR NO CLOUDS BELOW 12000 FEET WITH NO
SIGNIFICANT WEATHER AND/OR OBSTRUCTIONS TO VISIBILITY.

COZ001>005-013-030-031-131400-
...NORTHWEST COLORADO...

CITY           SKY/WX    TMP DP  RH WIND       PRES   REMARKS
CRAIG          FAIR       6   2  83 CALM      30.25S
HAYDEN         FAIR      23  14  68 E13       30.23S WCI  11
MEEKER         FAIR      16  11  80 NE3       30.24S
MOUNT WERNER   NOT AVBL
STEAMBOAT SPGS FAIR      13  10  90 CALM      30.24S
WALDEN         FAIR      30  18  59 SE7       30.22F WCI  23
$$

COZ006>008-011-131400-
...WEST CENTRAL VALLEYS...

CITY           SKY/WX    TMP DP  RH WIND       PRES   REMARKS
GRAND JUNCTION FAIR      25  23  92 E3        30.27S
MONTROSE       FAIR      25  20  81 SE7       30.30S WCI  17
EAGLE          FAIR      18  16  93 CALM      30.32S
RIFLE          FAIR      20  14  77 CALM      30.29S
DELTA          FAIR      28  25  87 E3        30.29S
NUCLA          FAIR      30  21  69 CALM      30.33R
$$

COZ017>023-064>068-131400-
...SOUTHWEST COLORADO...

CITY           SKY/WX    TMP DP  RH WIND       PRES   REMARKS
DURANGO        FAIR      20  16  84 N5        30.33R WCI  13
CORTEZ         FAIR      21  17  84 E7        30.31S WCI  12
PAGOSA SPRINGS FAIR      24  20  85 CALM      30.35S
TELLURIDE      FAIR      32  14  46 SE6       30.38S WCI  27
WOLF CREEK PAS FAIR      30  12  47 SW28G33   30.46S WCI  16
$$

COZ009-010-012-014-032>034-037-058>063-131400-
...CENTRAL COLORADO...

CITY           SKY/WX    TMP DP  RH WIND       PRES   REMARKS
ASPEN          FAIR      23  16  74 S7        30.27S WCI  15
BUENA VISTA    FAIR      26  20  76 CALM      30.25F
COPPER MTN     FAIR      34   9  35 W24G31    30.36  WCI  21
BERTHOUD PASS  FAIR      27  14  59 NW39G49   30.29F WCI   8
COTTONWOOD PAS FAIR      41   9  26 NW6G16    30.29S
GUNNISON       FAIR      -8 -18  59 NE3       30.43S
KREMMLING      FAIR      -2  -8  78 CALM      30.31S
LEADVILLE      FAIR      28  12  51 N7        30.29F WCI  21
MONARCH PASS   FAIR      27  12  54 W33G39    30.47F WCI   9
SALIDA         NOT AVBL
SUNLIGHT       FAIR      32  14  47 CALM      30.37F
WILKERSON PASS FAIR      30  14  51 SW14G26   30.31S WCI  20
$$

COZ069>075-131400-
...SAN LUIS VALLEY/SANGRE DE CRISTO MOUNTAINS...

CITY           SKY/WX    TMP DP  RH WIND       PRES   REMARKS
ALAMOSA        FAIR      20  17  88 CALM      30.31S
LA VETA PASS   FAIR      30  18  59 MISG      30.32F
SAGUACHE       FAIR      28  19  69 NW14      30.31F WCI  17
$$

COZ035-036-038>040-131400-
...NORTHERN COLORADO FRONT RANGE...

CITY           SKY/WX    TMP DP  RH WIND       PRES   REMARKS
DENVER INTL AP FOG       29  26  89 VRB3      30.08F VSB 1/16
DMNS CITY PARK   N/A     29  29 100 N2G9      30.08S
AURORA         FOG       25  25  99 CALM      30.08F VSB 1/2
FRONT RANGE AP NOT AVBL
ERIE MUNI ARPT FOG       30  30 100 CALM      30.09F VSB 1/4
BOULDER MUN AP FOG       30  30 100 E5        30.09F VSB 1/4 WCI  25
CENTENNIAL     MOCLDY    36  27  69 CALM      30.07F
BROOMFIELD     NOT AVBL
FORT COLLINS   CLOUDY    28  28 100 CALM      30.10F VSB 1/4
LONGMONT       FOG       32  31  96 CALM      30.12F VSB 1/2
$$

COZ041-046-047-076>085-087-088-131400-
...PIKES PEAK/PALMER DIVIDE AND SOUTHERN FOOTHILLS...

CITY           SKY/WX    TMP DP  RH WIND       PRES   REMARKS
COLO. SPRINGS  MOCLDY    29  25  85 NE3       30.14S
A. F. ACADEMY  FAIR      33  23  69 VRB3      30.12S
SCHRIEVER AFB  FAIR      29  26  87 W5        30.13F WCI  24
ELLICOTT       FAIR     N/A N/A N/A CALM      30.12F
FALCON         FAIR      43  20  39 SW7       30.14F
FORT CARSON    FAIR      26  24  93 CALM      30.12F
LIMON          FOG       26  26 100 S9        30.12F VSB 1   WCI  17
MONUMENT HILL  FAIR      45  21  39 SW14      30.15F
TRINIDAD       FAIR      39  21  48 W9        30.16F
$$

COZ042>045-048>051-090-091-131400-
...NORTHEAST COLORADO...

CITY           SKY/WX    TMP DP  RH WIND       PRES   REMARKS
GREELEY ARPT   CLOUDY    30  28  93 CALM      30.11F VSB 1/2
AKRON          CLOUDY    28  28 100 S12       30.10F WCI  18
BURLINGTON     FOG       26  23  88 S17       30.19F VSB 1/2 WCI  13
WRAY           CLOUDY   N/A N/A N/A SE13      30.20F HAZE
STERLING       FAIR      30  30 100 S7        30.12S WCI  23
HOLYOKE        CLOUDY    32  30  93 S14G20    30.18S FOG     WCI  22
FORT MORGAN    FOG       28  28  96 CALM      30.11F VSB 1/4
$$

COZ086-089-092>099-131400-
...SOUTHEAST COLORADO...

CITY           SKY/WX    TMP DP  RH WIND       PRES   REMARKS
PUEBLO         FOG       30  27  88 S3        30.16F VSB 1/4
LA JUNTA       CLOUDY    29  27  92 NW5       30.17F FOG     WCI  24
LAMAR          CLOUDY    28  26  92 S3        30.19S
SPRINGFIELD      N/A     29  26  89 S13       30.16S WCI  19
$$



USA.gov is the U.S. government's official web portal to all federal, state and local government web resources and services.